Time,TemperatureF,DewpointF,PressureIn,WindDirection,WindDirectionDegrees,WindSpeedMPH,WindSpeedGustMPH,Humidity,HourlyPrecipIn,Conditions,Clouds,dailyrainin,SoftwareType,DateUTC
2013-07-02 00:01:00,70.9,70.9,30.03,SSW,193,0.0,0.0,100,0.00,,,0.00,VWS V14.01,2013-07-02 04:01:00,
2013-07-02 00:06:00,70.9,70.9,30.03,SSW,193,2.0,3.0,100,0.00,,,0.00,VWS V14.01,2013-07-02 04:06:00,
2013-07-02 00:11:00,70.9,70.9,30.04,SSW,193,0.0,3.0,100,0.00,,,0.00,VWS V14.01,2013-07-02 04:11:00,
2013-07-02 00:16:00,70.8,70.8,30.04,SSW,192,0.0,3.0,100,0.00,,,0.00,VWS V14.01,2013-07-02 04:16:00,
2013-07-02 00:21:00,70.8,70.8,30.04,SSW,192,0.0,3.0,100,0.00,,,0.00,VWS V14.01,2013-07-02 04:21:00,
2013-07-02 00:26:00,70.8,70.8,30.05,South,191,0.0,3.0,100,0.00,,,0.00,VWS V14.01,2013-07-02 04:26:00,
2013-07-02 00:31:00,70.8,70.8,30.05,South,191,0.0,0.0,100,0.00,,,0.00,VWS V14.01,2013-07-02 04:31:00,
2013-07-02 00:36:00,70.7,70.7,30.05,South,190,0.0,0.0,100,0.00,,,0.00,VWS V14.01,2013-07-02 04:36:00,
2013-07-02 00:41:00,70.7,70.7,30.04,SSW,192,0.0,0.0,100,0.00,,,0.00,VWS V14.01,2013-07-02 04:41:00,
2013-07-02 00:46:00,70.6,70.6,30.05,SSW,192,0.0,0.0,100,0.00,,,0.00,VWS V14.01,2013-07-02 04:46:00,
2013-07-02 00:51:00,70.5,70.5,30.05,South,190,0.0,0.0,100,0.00,,,0.00,VWS V14.01,2013-07-02 04:51:00,
2013-07-02 00:56:00,70.4,70.4,30.05,South,191,0.0,1.0,100,0.00,,,0.00,VWS V14.01,2013-07-02 04:56:00,
2013-07-02 01:01:00,70.3,70.3,30.05,South,191,0.0,0.0,100,0.00,,,0.00,VWS V14.01,2013-07-02 05:01:00,
2013-07-02 01:06:00,70.3,70.3,30.05,South,191,0.0,0.0,100,0.00,,,0.00,VWS V14.01,2013-07-02 05:06:00,
2013-07-02 01:11:00,70.3,70.3,30.05,South,191,0.0,0.0,100,0.00,,,0.00,VWS V14.01,2013-07-02 05:11:00,
2013-07-02 01:16:00,70.2,70.2,30.05,South,191,0.0,0.0,100,0.00,,,0.00,VWS V14.01,2013-07-02 05:16:00,
2013-07-02 01:22:00,70.2,70.2,30.05,South,191,0.0,0.0,100,0.00,,,0.00,VWS V14.01,2013-07-02 05:22:00,
2013-07-02 01:26:00,70.2,70.2,30.05,South,191,0.0,2.0,100,0.00,,,0.00,VWS V14.01,2013-07-02 05:26:00,
2013-07-02 01:31:00,70.1,70.1,30.04,South,191,0.0,0.0,100,0.00,,,0.00,VWS V14.01,2013-07-02 05:31:00,
2013-07-02 01:36:00,70.0,70.0,30.04,South,190,0.0,0.0,100,0.00,,,0.00,VWS V14.01,2013-07-02 05:36:00,
2013-07-02 01:41:00,70.0,70.0,30.04,South,191,0.0,0.0,100,0.00,,,0.00,VWS V14.01,2013-07-02 05:41:00,
2013-07-02 01:47:00,69.9,69.9,30.05,South,190,0.0,0.0,100,0.00,,,0.00,VWS V14.01,2013-07-02 05:47:00,
2013-07-02 01:51:00,69.8,69.8,30.05,South,191,0.0,0.0,100,0.00,,,0.00,VWS V14.01,2013-07-02 05:51:00,
2013-07-02 01:56:00,69.7,69.7,30.04,South,191,0.0,0.0,100,0.00,,,0.00,VWS V14.01,2013-07-02 05:56:00,
2013-07-02 02:02:00,69.8,69.8,30.04,SSW,193,0.0,0.0,100,0.00,,-RA,0.00,VWS V14.01,2013-07-02 06:02:00,
2013-07-02 02:07:00,69.9,69.9,30.05,SSW,193,0.0,1.0,100,0.00,,-RA,0.00,VWS V14.01,2013-07-02 06:07:00,
2013-07-02 02:12:00,70.0,70.0,30.04,SSW,193,0.0,1.0,100,0.00,,-RA,0.00,VWS V14.01,2013-07-02 06:12:00,
2013-07-02 02:17:00,70.1,70.1,30.04,SSW,194,3.0,3.0,100,0.00,,-RA,0.00,VWS V14.01,2013-07-02 06:17:00,
2013-07-02 02:22:00,70.2,70.2,30.04,SSW,194,0.0,3.0,100,0.00,,-RA,0.00,VWS V14.01,2013-07-02 06:22:00,
2013-07-02 02:27:00,70.2,70.2,30.04,SSW,194,0.0,3.0,100,0.00,,-RA,0.00,VWS V14.01,2013-07-02 06:27:00,
2013-07-02 02:32:00,70.2,70.2,30.04,SSW,194,0.0,0.0,100,0.00,,-RA,0.00,VWS V14.01,2013-07-02 06:32:00,
2013-07-02 02:37:00,70.2,70.2,30.05,SSW,194,0.0,0.0,100,0.00,,-RA,0.00,VWS V14.01,2013-07-02 06:37:00,
2013-07-02 02:42:00,70.3,70.3,30.05,SSW,194,0.0,0.0,100,0.00,,-RA,0.00,VWS V14.01,2013-07-02 06:42:00,
2013-07-02 02:47:00,70.4,70.4,30.05,SSW,194,1.0,2.0,100,0.00,,-RA,0.00,VWS V14.01,2013-07-02 06:47:00,
2013-07-02 02:52:00,70.5,70.5,30.04,SSW,194,0.0,4.0,100,0.00,,-RA,0.00,VWS V14.01,2013-07-02 06:52:00,
2013-07-02 02:57:00,70.5,70.5,30.04,SSW,194,0.0,4.0,100,0.00,,-RA,0.00,VWS V14.01,2013-07-02 06:57:00,
2013-07-02 03:02:00,70.5,70.5,30.04,SSW,194,0.0,0.0,100,0.00,,,0.00,VWS V14.01,2013-07-02 07:02:00,
2013-07-02 03:07:00,70.5,70.5,30.04,SSW,194,0.0,0.0,100,0.00,,,0.00,VWS V14.01,2013-07-02 07:07:00,
2013-07-02 03:12:00,70.5,70.5,30.04,SSW,194,0.0,0.0,100,0.00,,,0.00,VWS V14.01,2013-07-02 07:12:00,
2013-07-02 03:17:00,70.6,70.6,30.04,SSW,194,0.0,1.0,100,0.00,,,0.00,VWS V14.01,2013-07-02 07:17:00,
2013-07-02 03:22:00,70.6,70.6,30.04,SSW,194,0.0,1.0,100,0.00,,,0.00,VWS V14.01,2013-07-02 07:22:00,
2013-07-02 03:27:00,70.7,70.7,30.04,SSW,194,0.0,1.0,100,0.00,,,0.00,VWS V14.01,2013-07-02 07:27:00,
2013-07-02 03:32:00,70.7,70.7,30.04,SSW,194,0.0,0.0,100,0.00,,,0.00,VWS V14.01,2013-07-02 07:32:00,
2013-07-02 03:37:00,70.7,70.7,30.04,SSW,194,0.0,0.0,100,0.00,,,0.00,VWS V14.01,2013-07-02 07:37:00,
2013-07-02 03:42:00,70.7,70.7,30.04,SSW,194,0.0,0.0,100,0.00,,,0.00,VWS V14.01,2013-07-02 07:42:00,
2013-07-02 03:47:00,70.7,70.7,30.04,SSW,194,0.0,0.0,100,0.00,,,0.00,VWS V14.01,2013-07-02 07:47:00,
2013-07-02 03:52:00,70.7,70.7,30.04,SSW,194,0.0,0.0,100,0.00,,,0.00,VWS V14.01,2013-07-02 07:52:00,
2013-07-02 03:57:00,70.7,70.7,30.04,SSW,194,0.0,0.0,100,0.00,,,0.00,VWS V14.01,2013-07-02 07:57:00,
2013-07-02 04:02:00,70.7,70.7,30.04,SSW,194,0.0,0.0,100,0.00,,,0.00,VWS V14.01,2013-07-02 08:02:00,
2013-07-02 04:07:00,70.7,70.7,30.05,SSW,194,0.0,0.0,100,0.00,,,0.00,VWS V14.01,2013-07-02 08:07:00,
2013-07-02 04:12:00,70.7,70.7,30.04,SSW,194,0.0,0.0,100,0.00,,,0.00,VWS V14.01,2013-07-02 08:12:00,
2013-07-02 04:17:00,70.7,70.7,30.05,SSW,194,0.0,0.0,100,0.00,,,0.00,VWS V14.01,2013-07-02 08:17:00,
2013-07-02 04:22:00,70.8,70.8,30.05,SSW,194,0.0,1.0,100,0.00,,,0.00,VWS V14.01,2013-07-02 08:22:00,
2013-07-02 04:27:00,70.8,70.8,30.05,SSW,194,0.0,1.0,100,0.00,,,0.00,VWS V14.01,2013-07-02 08:27:00,
2013-07-02 04:32:00,70.8,70.8,30.05,SSW,194,0.0,0.0,100,0.00,,,0.00,VWS V14.01,2013-07-02 08:32:00,
2013-07-02 04:37:00,70.8,70.8,30.05,SSW,194,0.0,0.0,100,0.00,,,0.00,VWS V14.01,2013-07-02 08:37:00,
2013-07-02 04:42:00,70.8,70.8,30.05,SSW,194,0.0,0.0,100,0.00,,,0.00,VWS V14.01,2013-07-02 08:42:00,
2013-07-02 04:47:00,70.7,70.7,30.05,SSW,194,0.0,0.0,100,0.00,,,0.00,VWS V14.01,2013-07-02 08:47:00,
2013-07-02 04:52:00,70.6,70.6,30.05,SSW,194,0.0,0.0,100,0.00,,,0.00,VWS V14.01,2013-07-02 08:52:00,
2013-07-02 04:57:00,70.6,70.6,30.05,SSW,194,0.0,0.0,100,0.00,,,0.00,VWS V14.01,2013-07-02 08:57:00,
2013-07-02 05:03:00,70.6,70.6,30.05,SSW,194,0.0,0.0,100,0.00,,,0.00,VWS V14.01,2013-07-02 09:03:00,
2013-07-02 05:08:00,70.5,70.5,30.05,SSW,194,0.0,0.0,100,0.00,,,0.00,VWS V14.01,2013-07-02 09:08:00,
2013-07-02 05:13:00,70.5,70.5,30.06,SSW,194,0.0,0.0,100,0.00,,,0.00,VWS V14.01,2013-07-02 09:13:00,
2013-07-02 05:18:00,70.5,70.5,30.06,SSW,194,0.0,0.0,100,0.00,,,0.00,VWS V14.01,2013-07-02 09:18:00,
2013-07-02 05:23:00,70.4,70.4,30.06,SSW,194,0.0,0.0,100,0.00,,,0.00,VWS V14.01,2013-07-02 09:23:00,
2013-07-02 05:28:00,70.3,70.3,30.07,SSW,193,0.0,0.0,100,0.00,,,0.00,VWS V14.01,2013-07-02 09:28:00,
2013-07-02 05:33:00,70.3,70.3,30.07,SSW,193,0.0,0.0,100,0.01,,,0.01,VWS V14.01,2013-07-02 09:33:00,
2013-07-02 05:38:00,70.3,70.3,30.07,SSW,194,0.0,0.0,100,0.01,,,0.01,VWS V14.01,2013-07-02 09:38:00,
2013-07-02 05:43:00,70.2,70.2,30.07,SSW,193,0.0,1.0,100,0.01,,,0.01,VWS V14.01,2013-07-02 09:43:00,
2013-07-02 05:48:00,70.3,70.3,30.07,SSW,193,0.0,1.0,100,0.01,,,0.01,VWS V14.01,2013-07-02 09:48:00,
2013-07-02 05:53:00,70.3,70.3,30.07,SSW,193,0.0,1.0,100,0.01,,,0.01,VWS V14.01,2013-07-02 09:53:00,
2013-07-02 05:58:00,70.3,70.3,30.07,SSW,193,0.0,1.0,100,0.01,,,0.01,VWS V14.01,2013-07-02 09:58:00,
2013-07-02 06:03:00,70.2,70.2,30.07,SSW,193,0.0,0.0,100,0.01,,,0.01,VWS V14.01,2013-07-02 10:03:00,
2013-07-02 06:08:00,70.3,70.3,30.07,SSW,193,0.0,0.0,100,0.01,,,0.01,VWS V14.01,2013-07-02 10:08:00,
2013-07-02 06:13:00,70.3,70.3,30.08,SSW,193,0.0,0.0,100,0.01,,,0.01,VWS V14.01,2013-07-02 10:13:00,
2013-07-02 06:18:00,70.3,70.3,30.08,SSW,194,0.0,0.0,100,0.01,,,0.01,VWS V14.01,2013-07-02 10:18:00,
2013-07-02 06:23:00,70.3,70.3,30.08,South,191,0.0,0.0,100,0.01,,,0.01,VWS V14.01,2013-07-02 10:23:00,
2013-07-02 06:28:00,70.4,70.4,30.08,South,191,0.0,0.0,100,0.01,,,0.01,VWS V14.01,2013-07-02 10:28:00,
2013-07-02 06:33:00,70.5,70.5,30.08,South,191,0.0,0.0,100,0.01,,,0.01,VWS V14.01,2013-07-02 10:33:00,
2013-07-02 06:38:00,70.8,70.8,30.08,South,191,0.0,0.0,100,0.01,,,0.01,VWS V14.01,2013-07-02 10:38:00,
2013-07-02 06:43:00,71.0,71.0,30.08,South,191,0.0,0.0,100,0.01,,,0.01,VWS V14.01,2013-07-02 10:43:00,
2013-07-02 06:48:00,71.3,71.3,30.08,South,191,0.0,0.0,100,0.01,,,0.01,VWS V14.01,2013-07-02 10:48:00,
2013-07-02 06:53:00,71.5,71.5,30.08,South,191,0.0,0.0,100,0.01,,,0.01,VWS V14.01,2013-07-02 10:53:00,
2013-07-02 06:58:00,71.6,71.6,30.09,South,191,0.0,0.0,100,0.01,,,0.01,VWS V14.01,2013-07-02 10:58:00,
2013-07-02 07:03:00,71.8,71.8,30.09,South,191,0.0,0.0,100,0.00,,,0.01,VWS V14.01,2013-07-02 11:03:00,
2013-07-02 07:08:00,71.9,71.9,30.09,South,191,0.0,0.0,100,0.00,,,0.01,VWS V14.01,2013-07-02 11:08:00,
2013-07-02 07:13:00,72.1,72.1,30.09,South,190,0.0,0.0,100,0.00,,,0.00,VWS V14.01,2013-07-02 11:13:00,
2013-07-02 07:18:00,72.3,72.3,30.09,South,191,0.0,0.0,100,0.00,,,0.01,VWS V14.01,2013-07-02 11:18:00,
2013-07-02 07:24:00,72.5,72.5,30.09,South,191,0.0,0.0,100,0.00,,,0.01,VWS V14.01,2013-07-02 11:24:00,
2013-07-02 07:29:00,72.8,72.8,30.09,South,191,0.0,0.0,100,0.00,,,0.01,VWS V14.01,2013-07-02 11:29:00,
2013-07-02 07:34:00,73.0,73.0,30.09,South,191,0.0,0.0,100,0.00,,,0.01,VWS V14.01,2013-07-02 11:34:00,
2013-07-02 07:39:00,73.4,73.4,30.09,South,191,0.0,0.0,100,0.00,,,0.01,VWS V14.01,2013-07-02 11:39:00,
2013-07-02 07:44:00,73.7,73.7,30.09,South,191,0.0,0.0,100,0.00,,,0.01,VWS V14.01,2013-07-02 11:44:00,
2013-07-02 07:49:00,73.8,73.8,30.10,South,191,0.0,0.0,100,0.00,,,0.01,VWS V14.01,2013-07-02 11:49:00,
2013-07-02 07:54:00,74.0,74.0,30.10,South,191,0.0,0.0,100,0.00,,,0.01,VWS V14.01,2013-07-02 11:54:00,
2013-07-02 07:59:00,74.1,74.1,30.10,South,191,0.0,0.0,100,0.00,,,0.01,VWS V14.01,2013-07-02 11:59:00,
2013-07-02 08:04:00,74.3,74.3,30.10,South,191,0.0,0.0,100,0.00,,,0.01,VWS V14.01,2013-07-02 12:04:00,
2013-07-02 08:09:00,74.6,74.6,30.10,South,191,0.0,0.0,100,0.00,,,0.01,VWS V14.01,2013-07-02 12:09:00,
2013-07-02 08:14:00,74.6,74.6,30.09,South,191,0.0,0.0,100,0.00,,,0.01,VWS V14.01,2013-07-02 12:14:00,
2013-07-02 08:19:00,74.9,74.9,30.09,South,191,0.0,0.0,100,0.00,,,0.01,VWS V14.01,2013-07-02 12:19:00,
2013-07-02 08:24:00,75.1,75.1,30.10,South,191,0.0,0.0,100,0.00,,,0.01,VWS V14.01,2013-07-02 12:24:00,
2013-07-02 08:29:00,75.5,75.5,30.10,South,190,0.0,0.0,100,0.00,,,0.01,VWS V14.01,2013-07-02 12:29:00,
2013-07-02 08:34:00,75.7,75.7,30.10,South,188,0.0,0.0,100,0.00,,,0.01,VWS V14.01,2013-07-02 12:34:00,
2013-07-02 08:39:00,76.0,76.0,30.10,South,188,0.0,0.0,100,0.00,,,0.01,VWS V14.01,2013-07-02 12:39:00,
2013-07-02 08:44:00,76.2,76.2,30.10,South,187,0.0,6.0,100,0.00,,,0.01,VWS V14.01,2013-07-02 12:44:00,
2013-07-02 08:49:00,76.4,76.4,30.10,South,185,0.0,6.0,100,0.00,,,0.01,VWS V14.01,2013-07-02 12:49:00,
2013-07-02 08:54:00,76.6,76.6,30.10,South,185,2.0,6.0,100,0.00,,,0.01,VWS V14.01,2013-07-02 12:54:00,
2013-07-02 09:00:00,76.8,76.8,30.10,SE,136,3.0,6.0,100,0.00,,,0.01,VWS V14.01,2013-07-02 13:00:00,
2013-07-02 09:04:00,77.1,77.1,30.10,SE,137,0.0,3.0,100,0.00,,BKN038,0.01,VWS V14.01,2013-07-02 13:04:00,
2013-07-02 09:10:00,77.7,77.1,30.10,SE,137,0.0,3.0,98,0.00,,BKN038,0.01,VWS V14.01,2013-07-02 13:10:00,
2013-07-02 09:15:00,78.0,76.5,30.11,SE,137,0.0,3.0,95,0.00,,BKN038,0.01,VWS V14.01,2013-07-02 13:15:00,
2013-07-02 09:20:00,78.2,76.3,30.11,SSW,209,0.0,5.0,94,0.00,,BKN038,0.01,VWS V14.01,2013-07-02 13:20:00,
2013-07-02 09:25:00,78.5,76.0,30.11,South,177,0.0,5.0,92,0.00,,BKN038,0.01,VWS V14.01,2013-07-02 13:25:00,
2013-07-02 09:30:00,78.6,75.4,30.11,South,180,0.0,5.0,90,0.00,,BKN038,0.01,VWS V14.01,2013-07-02 13:30:00,
2013-07-02 09:35:00,78.8,74.9,30.11,SSW,209,3.0,14.0,88,0.00,,OVC033,0.01,VWS V14.01,2013-07-02 13:35:00,
2013-07-02 09:40:00,78.9,75.1,30.11,SSW,208,4.0,14.0,88,0.00,,OVC033,0.01,VWS V14.01,2013-07-02 13:40:00,
2013-07-02 09:45:00,79.0,75.2,30.11,South,180,4.0,14.0,88,0.00,,OVC033,0.01,VWS V14.01,2013-07-02 13:45:00,
2013-07-02 09:50:00,79.1,74.9,30.11,SSW,194,1.0,14.0,87,0.00,,OVC033,0.01,VWS V14.01,2013-07-02 13:50:00,
2013-07-02 09:55:00,79.2,75.0,30.11,SSW,194,3.0,14.0,87,0.00,,OVC033,0.01,VWS V14.01,2013-07-02 13:55:00,
2013-07-02 10:00:00,79.2,74.7,30.11,SSW,196,2.0,2.0,86,0.00,,OVC033,0.01,VWS V14.01,2013-07-02 14:00:00,
2013-07-02 10:05:00,79.2,75.0,30.11,SSW,196,2.0,5.0,87,0.00,,OVC033,0.01,VWS V14.01,2013-07-02 14:05:00,
2013-07-02 10:10:00,79.3,75.1,30.11,South,179,3.0,5.0,87,0.00,,OVC033,0.01,VWS V14.01,2013-07-02 14:10:00,
2013-07-02 10:15:00,79.4,74.8,30.11,SSW,206,5.0,9.0,86,0.00,,OVC033,0.01,VWS V14.01,2013-07-02 14:15:00,
2013-07-02 10:20:00,79.3,74.4,30.12,SW,220,4.0,11.0,85,0.00,,OVC033,0.01,VWS V14.01,2013-07-02 14:20:00,
2013-07-02 10:25:00,79.2,74.7,30.11,SSW,210,0.0,11.0,86,0.00,,OVC033,0.01,VWS V14.01,2013-07-02 14:25:00,
2013-07-02 10:30:00,79.3,74.8,30.12,SE,125,0.0,2.0,86,0.00,,OVC033,0.01,VWS V14.01,2013-07-02 14:30:00,
2013-07-02 10:35:00,79.6,75.1,30.12,South,183,0.0,2.0,86,0.00,,BKN055,0.01,VWS V14.01,2013-07-02 14:35:00,
2013-07-02 10:40:00,79.7,75.2,30.12,SSW,201,1.0,7.0,86,0.00,,BKN055,0.01,VWS V14.01,2013-07-02 14:40:00,
2013-07-02 10:45:00,79.8,74.9,30.12,SW,215,0.0,7.0,85,0.00,,BKN055,0.01,VWS V14.01,2013-07-02 14:45:00,
2013-07-02 10:50:00,79.8,74.9,30.12,WSW,241,1.0,7.0,85,0.00,,BKN055,0.01,VWS V14.01,2013-07-02 14:50:00,
2013-07-02 10:55:00,79.8,74.5,30.12,South,178,4.0,8.0,84,0.00,,BKN055,0.01,VWS V14.01,2013-07-02 14:55:00,
2013-07-02 11:00:00,79.8,74.5,30.12,South,178,0.0,0.0,84,0.00,,BKN055,0.01,VWS V14.01,2013-07-02 15:00:00,
2013-07-02 11:05:00,79.8,74.9,30.12,South,178,0.0,5.0,85,0.00,,BKN055,0.01,VWS V14.01,2013-07-02 15:05:00,
2013-07-02 11:10:00,79.8,74.5,30.13,WSW,242,3.0,7.0,84,0.00,,BKN055,0.01,VWS V14.01,2013-07-02 15:10:00,
2013-07-02 11:15:00,79.8,74.5,30.13,SW,218,5.0,7.0,84,0.00,,BKN055,0.01,VWS V14.01,2013-07-02 15:15:00,
2013-07-02 11:20:00,79.9,74.6,30.13,West,265,1.0,7.0,84,0.00,,BKN055,0.01,VWS V14.01,2013-07-02 15:20:00,
2013-07-02 11:25:00,80.1,74.5,30.13,South,182,0.0,7.0,83,0.00,,BKN055,0.01,VWS V14.01,2013-07-02 15:25:00,
2013-07-02 11:30:00,80.2,74.2,30.13,SW,235,3.0,11.0,82,0.00,,BKN055,0.01,VWS V14.01,2013-07-02 15:30:00,
2013-07-02 11:35:00,80.1,74.5,30.13,South,175,0.0,11.0,83,0.00,,OVC044,0.01,VWS V14.01,2013-07-02 15:35:00,
2013-07-02 11:40:00,80.3,74.7,30.13,SW,235,1.0,11.0,83,0.00,,OVC044,0.01,VWS V14.01,2013-07-02 15:40:00,
2013-07-02 11:45:00,80.5,74.9,30.13,SSW,212,2.0,11.0,83,0.00,,OVC044,0.01,VWS V14.01,2013-07-02 15:45:00,
2013-07-02 11:50:00,80.7,75.1,30.13,SSW,195,0.0,11.0,83,0.00,,OVC044,0.01,VWS V14.01,2013-07-02 15:50:00,
2013-07-02 11:55:00,80.7,74.7,30.13,SSW,213,4.0,11.0,82,0.00,,OVC044,0.01,VWS V14.01,2013-07-02 15:55:00,
2013-07-02 12:00:00,80.8,74.8,30.13,SSW,203,4.0,10.0,82,0.00,,OVC044,0.01,VWS V14.01,2013-07-02 16:00:00,
2013-07-02 12:05:00,80.8,74.8,30.13,SW,216,3.0,10.0,82,0.00,,OVC060,0.01,VWS V14.01,2013-07-02 16:05:00,
2013-07-02 12:10:00,80.8,74.8,30.13,SSW,199,4.0,10.0,82,0.00,,OVC060,0.01,VWS V14.01,2013-07-02 16:10:00,
2013-07-02 12:16:00,80.7,74.7,30.13,South,187,8.0,10.0,82,0.00,,OVC060,0.01,VWS V14.01,2013-07-02 16:16:00,
2013-07-02 12:21:00,80.5,74.5,30.13,SW,228,5.0,10.0,82,0.00,,OVC060,0.01,VWS V14.01,2013-07-02 16:21:00,
2013-07-02 12:26:00,80.5,74.9,30.13,SSE,148,1.0,10.0,83,0.00,,OVC060,0.01,VWS V14.01,2013-07-02 16:26:00,
2013-07-02 12:31:00,80.6,75.0,30.13,South,179,4.0,4.0,83,0.00,,OVC060,0.01,VWS V14.01,2013-07-02 16:31:00,
2013-07-02 12:36:00,81.1,75.4,30.13,South,175,0.0,6.0,83,0.00,,OVC060,0.01,VWS V14.01,2013-07-02 16:36:00,
2013-07-02 12:41:00,81.9,75.9,30.13,South,177,1.0,6.0,82,0.00,,OVC060,0.01,VWS V14.01,2013-07-02 16:41:00,
2013-07-02 12:46:00,82.4,75.6,30.13,South,173,4.0,10.0,80,0.00,,OVC060,0.01,VWS V14.01,2013-07-02 16:46:00,
2013-07-02 12:51:00,82.8,75.6,30.13,SSW,202,4.0,10.0,79,0.00,,OVC060,0.01,VWS V14.01,2013-07-02 16:51:00,
2013-07-02 12:56:00,83.1,75.9,30.13,SSW,198,5.0,10.0,79,0.00,,OVC060,0.01,VWS V14.01,2013-07-02 16:56:00,
2013-07-02 13:01:00,83.4,76.2,30.13,South,189,5.0,5.0,79,0.00,,OVC060,0.01,VWS V14.01,2013-07-02 17:01:00,
2013-07-02 13:06:00,83.5,75.9,30.13,SSW,192,2.0,8.0,78,0.00,,BKN075,0.01,VWS V14.01,2013-07-02 17:06:00,
2013-07-02 13:11:00,83.7,75.7,30.12,SSW,197,2.0,9.0,77,0.00,,BKN075,0.01,VWS V14.01,2013-07-02 17:11:00,
2013-07-02 13:16:00,84.0,76.0,30.12,SW,216,8.0,9.0,77,0.00,,BKN075,0.01,VWS V14.01,2013-07-02 17:16:00,
2013-07-02 13:21:00,84.2,76.2,30.12,South,186,0.0,9.0,77,0.00,,BKN075,0.01,VWS V14.01,2013-07-02 17:21:00,
2013-07-02 13:26:00,84.5,75.3,30.12,WSW,249,4.0,9.0,74,0.00,,BKN075,0.01,VWS V14.01,2013-07-02 17:26:00,
2013-07-02 13:31:00,84.6,76.2,30.12,South,179,2.0,6.0,76,0.00,,BKN075,0.01,VWS V14.01,2013-07-02 17:31:00,
2013-07-02 13:36:00,84.7,75.5,30.12,West,263,5.0,9.0,74,0.00,,BKN075,0.01,VWS V14.01,2013-07-02 17:36:00,
2013-07-02 13:41:00,84.5,75.3,30.11,SW,229,7.0,9.0,74,0.00,,BKN075,0.01,VWS V14.01,2013-07-02 17:41:00,
2013-07-02 13:46:00,84.8,76.0,30.11,South,191,0.0,9.0,75,0.00,,BKN075,0.01,VWS V14.01,2013-07-02 17:46:00,
2013-07-02 13:51:00,85.2,76.4,30.11,SSW,209,2.0,9.0,75,0.00,,BKN075,0.01,VWS V14.01,2013-07-02 17:51:00,
2013-07-02 13:56:00,85.5,76.7,30.11,South,178,2.0,9.0,75,0.00,,BKN075,0.01,VWS V14.01,2013-07-02 17:56:00,
2013-07-02 14:01:00,85.9,77.1,30.11,South,178,0.0,6.0,75,0.00,,BKN075,0.01,VWS V14.01,2013-07-02 18:01:00,
2013-07-02 14:06:00,86.2,76.5,30.11,SSW,207,3.0,6.0,73,0.00,,BKN042,0.01,VWS V14.01,2013-07-02 18:06:00,
2013-07-02 14:11:00,86.2,76.1,30.11,SW,234,4.0,6.0,72,0.00,,BKN042,0.01,VWS V14.01,2013-07-02 18:11:00,
2013-07-02 14:16:00,85.7,75.6,30.11,SSW,194,2.0,9.0,72,0.00,,BKN042,0.01,VWS V14.01,2013-07-02 18:16:00,
2013-07-02 14:21:00,85.3,76.1,30.11,SSW,196,7.0,9.0,74,0.00,,BKN042,0.00,VWS V14.01,2013-07-02 18:21:00,
2013-07-02 14:26:00,85.2,76.0,30.11,SW,226,7.0,9.0,74,0.00,,BKN042,0.01,VWS V14.01,2013-07-02 18:26:00,
2013-07-02 14:31:00,85.0,75.8,30.11,WSW,244,3.0,8.0,74,0.00,,BKN042,0.01,VWS V14.01,2013-07-02 18:31:00,
2013-07-02 14:36:00,85.0,75.8,30.11,SW,235,4.0,10.0,74,0.00,,BKN042,0.01,VWS V14.01,2013-07-02 18:36:00,
2013-07-02 14:41:00,85.0,75.8,30.11,South,180,3.0,10.0,74,0.00,,BKN042,0.01,VWS V14.01,2013-07-02 18:41:00,
2013-07-02 14:46:00,85.1,75.5,30.11,South,184,6.0,10.0,73,0.00,,BKN042,0.01,VWS V14.01,2013-07-02 18:46:00,
2013-07-02 14:51:00,85.1,75.9,30.11,SSW,196,9.0,10.0,74,0.00,,BKN042,0.01,VWS V14.01,2013-07-02 18:51:00,
2013-07-02 14:56:00,85.0,75.4,30.11,SW,222,5.0,10.0,73,0.00,,BKN042,0.01,VWS V14.01,2013-07-02 18:56:00,
2013-07-02 15:01:00,85.0,75.8,30.12,WSW,257,3.0,7.0,74,0.00,,BKN042,0.01,VWS V14.01,2013-07-02 19:01:00,
2013-07-02 15:06:00,85.3,76.5,30.11,SSW,200,6.0,8.0,75,0.00,,BKN100,0.01,VWS V14.01,2013-07-02 19:06:00,
2013-07-02 15:11:00,85.9,75.8,30.11,SSW,201,2.0,9.0,72,0.00,,BKN100,0.01,VWS V14.01,2013-07-02 19:11:00,
2013-07-02 15:17:00,86.3,76.2,30.11,South,181,3.0,9.0,72,0.00,,BKN100,0.00,VWS V14.01,2013-07-02 19:17:00,
2013-07-02 15:22:00,86.3,76.2,30.11,SSW,193,6.0,9.0,72,0.00,,BKN100,0.00,VWS V14.01,2013-07-02 19:22:00,
2013-07-02 15:27:00,86.0,75.9,30.11,South,183,3.0,9.0,72,0.00,,BKN100,0.01,VWS V14.01,2013-07-02 19:27:00,
2013-07-02 15:32:00,85.7,76.1,30.11,SSW,192,5.0,6.0,73,0.00,,BKN100,0.01,VWS V14.01,2013-07-02 19:32:00,
2013-07-02 15:37:00,85.5,75.9,30.11,South,190,0.0,6.0,73,0.00,,BKN100,0.01,VWS V14.01,2013-07-02 19:37:00,
2013-07-02 15:42:00,85.5,75.9,30.11,South,187,3.0,6.0,73,0.00,,BKN100,0.01,VWS V14.01,2013-07-02 19:42:00,
2013-07-02 15:47:00,85.5,75.9,30.11,South,187,0.0,6.0,73,0.00,,BKN100,0.01,VWS V14.01,2013-07-02 19:47:00,
2013-07-02 15:52:00,85.5,75.9,30.10,South,187,0.0,6.0,73,0.00,,BKN100,0.01,VWS V14.01,2013-07-02 19:52:00,
2013-07-02 15:57:00,85.5,75.9,30.10,South,187,0.0,6.0,73,0.00,,BKN100,0.01,VWS V14.01,2013-07-02 19:57:00,
2013-07-02 16:02:00,86.0,76.3,30.10,South,187,4.0,4.0,73,0.00,,BKN100,0.01,VWS V14.01,2013-07-02 20:02:00,
2013-07-02 16:07:00,86.4,76.3,30.11,South,187,3.0,4.0,72,0.00,,FEW029,0.01,VWS V14.01,2013-07-02 20:07:00,
2013-07-02 16:12:00,86.4,76.3,30.11,SSW,204,5.0,7.0,72,0.00,,FEW029,0.01,VWS V14.01,2013-07-02 20:12:00,
2013-07-02 16:17:00,86.4,76.3,30.10,SW,215,5.0,7.0,72,0.00,,FEW029,0.01,VWS V14.01,2013-07-02 20:17:00,
2013-07-02 16:22:00,86.1,75.6,30.10,SSW,202,0.0,7.0,71,0.00,,FEW029,0.01,VWS V14.01,2013-07-02 20:22:00,
2013-07-02 16:27:00,85.8,75.7,30.10,SSW,208,2.0,7.0,72,0.00,,FEW029,0.01,VWS V14.01,2013-07-02 20:27:00,
2013-07-02 16:32:00,85.5,75.9,30.10,SSW,208,2.0,2.0,73,0.00,,FEW029,0.01,VWS V14.01,2013-07-02 20:32:00,
2013-07-02 16:37:00,85.2,75.6,30.10,SW,214,0.0,6.0,73,0.00,,FEW029,0.01,VWS V14.01,2013-07-02 20:37:00,
2013-07-02 16:42:00,84.8,75.2,30.11,SSW,198,1.0,6.0,73,0.00,,FEW029,0.01,VWS V14.01,2013-07-02 20:42:00,
2013-07-02 16:47:00,84.7,75.5,30.11,SSW,198,2.0,6.0,74,0.00,,FEW029,0.01,VWS V14.01,2013-07-02 20:47:00,
2013-07-02 16:52:00,84.7,75.1,30.11,SSW,198,2.0,6.0,73,0.00,,FEW029,0.01,VWS V14.01,2013-07-02 20:52:00,
2013-07-02 16:57:00,84.6,75.0,30.11,WSW,249,4.0,8.0,73,0.00,,FEW029,0.01,VWS V14.01,2013-07-02 20:57:00,
2013-07-02 17:02:00,84.5,74.9,30.11,SSW,204,2.0,6.0,73,0.00,,SCT080,0.01,VWS V14.01,2013-07-02 21:02:00,
2013-07-02 17:07:00,84.4,75.2,30.11,SSW,204,3.0,6.0,74,0.00,,SCT080,0.01,VWS V14.01,2013-07-02 21:07:00,
2013-07-02 17:12:00,84.6,75.4,30.11,WSW,238,2.0,6.0,74,0.00,,SCT080,0.01,VWS V14.01,2013-07-02 21:12:00,
2013-07-02 17:17:00,84.5,75.3,30.11,SW,225,3.0,8.0,74,0.00,,SCT080,0.01,VWS V14.01,2013-07-02 21:17:00,
2013-07-02 17:22:00,84.2,75.0,30.11,WSW,241,0.0,9.0,74,0.00,,SCT080,0.01,VWS V14.01,2013-07-02 21:22:00,
2013-07-02 17:27:00,84.1,75.3,30.12,South,186,5.0,9.0,75,0.00,,SCT080,0.01,VWS V14.01,2013-07-02 21:27:00,
2013-07-02 17:32:00,84.1,74.9,30.12,South,174,5.0,9.0,74,0.00,,SCT080,0.01,VWS V14.01,2013-07-02 21:32:00,
2013-07-02 17:37:00,84.3,75.1,30.12,South,185,4.0,9.0,74,0.00,,SCT080,0.01,VWS V14.01,2013-07-02 21:37:00,
2013-07-02 17:42:00,84.9,75.7,30.12,SSW,204,6.0,9.0,74,0.00,,SCT080,0.01,VWS V14.01,2013-07-02 21:42:00,
2013-07-02 17:47:00,85.3,75.2,30.12,SSW,198,3.0,10.0,72,0.00,,SCT080,0.01,VWS V14.01,2013-07-02 21:47:00,
2013-07-02 17:52:00,85.7,75.6,30.12,South,185,2.0,10.0,72,0.00,,SCT080,0.01,VWS V14.01,2013-07-02 21:52:00,
2013-07-02 17:57:00,85.6,75.5,30.12,SW,234,9.0,14.0,72,0.00,,SCT080,0.01,VWS V14.01,2013-07-02 21:57:00,
2013-07-02 18:02:00,85.2,75.6,30.12,SSE,164,4.0,5.0,73,0.00,,SCT080,0.01,VWS V14.01,2013-07-02 22:02:00,
2013-07-02 18:07:00,85.0,75.8,30.12,South,187,2.0,10.0,74,0.00,,SCT080,0.01,VWS V14.01,2013-07-02 22:07:00,
2013-07-02 18:12:00,84.7,75.5,30.12,SSW,203,2.0,11.0,74,0.00,,SCT080,0.01,VWS V14.01,2013-07-02 22:12:00,
2013-07-02 18:17:00,84.3,75.1,30.12,South,171,3.0,11.0,74,0.00,,SCT080,0.01,VWS V14.01,2013-07-02 22:17:00,
2013-07-02 18:22:00,84.0,75.2,30.12,SW,226,2.0,11.0,75,0.00,,SCT080,0.01,VWS V14.01,2013-07-02 22:22:00,
2013-07-02 18:27:00,83.7,74.9,30.13,SSW,205,3.0,11.0,75,0.00,,SCT080,0.01,VWS V14.01,2013-07-02 22:27:00,
2013-07-02 18:32:00,83.5,74.8,30.13,SW,215,2.0,7.0,75,0.00,,CLR,0.01,VWS V14.01,2013-07-02 22:32:00,
2013-07-02 18:38:00,83.2,74.8,30.13,SSW,196,3.0,9.0,76,0.00,,CLR,0.01,VWS V14.01,2013-07-02 22:38:00,
2013-07-02 18:43:00,83.0,74.7,30.13,South,174,3.0,9.0,76,0.00,,CLR,0.01,VWS V14.01,2013-07-02 22:43:00,
2013-07-02 18:48:00,82.8,74.5,30.14,South,174,0.0,9.0,76,0.00,,CLR,0.01,VWS V14.01,2013-07-02 22:48:00,
2013-07-02 18:53:00,82.6,74.7,30.14,South,174,3.0,9.0,77,0.00,,CLR,0.01,VWS V14.01,2013-07-02 22:53:00,
2013-07-02 18:58:00,82.3,74.4,30.13,SSW,198,0.0,9.0,77,0.00,,CLR,0.01,VWS V14.01,2013-07-02 22:58:00,
2013-07-02 19:03:00,82.1,74.2,30.14,SSW,198,0.0,1.0,77,0.00,,CLR,0.01,VWS V14.01,2013-07-02 23:03:00,
2013-07-02 19:08:00,82.0,74.5,30.14,SSW,198,0.0,1.0,78,0.00,,CLR,0.01,VWS V14.01,2013-07-02 23:08:00,
2013-07-02 19:13:00,81.8,74.7,30.14,South,173,2.0,5.0,79,0.00,,CLR,0.01,VWS V14.01,2013-07-02 23:13:00,
2013-07-02 19:18:00,81.4,74.6,30.14,SSW,211,4.0,11.0,80,0.00,,CLR,0.01,VWS V14.01,2013-07-02 23:18:00,
2013-07-02 19:23:00,80.7,74.7,30.14,SSW,203,6.0,11.0,82,0.00,,CLR,0.01,VWS V14.01,2013-07-02 23:23:00,
2013-07-02 19:28:00,80.1,74.5,30.14,South,188,2.0,11.0,83,0.00,,CLR,0.01,VWS V14.01,2013-07-02 23:28:00,
2013-07-02 19:30:00,79.9,74.3,30.14,South,174,2.0,3.0,83,0.00,,CLR,0.01,VWS V14.01,2013-07-02 23:30:00,
2013-07-02 19:35:00,79.4,74.2,30.15,SSE,168,4.0,9.0,84,0.00,,CLR,0.01,VWS V14.01,2013-07-02 23:35:00,
2013-07-02 19:40:00,79.0,73.8,30.15,South,187,0.0,9.0,84,0.00,,CLR,0.01,VWS V14.01,2013-07-02 23:40:00,
2013-07-02 19:45:00,78.7,73.8,30.14,SSW,204,0.0,9.0,85,0.00,,CLR,0.01,VWS V14.01,2013-07-02 23:45:00,
2013-07-02 19:50:00,78.3,73.8,30.15,SSW,200,3.0,9.0,86,0.00,,CLR,0.01,VWS V14.01,2013-07-02 23:50:00,
2013-07-02 19:54:00,78.1,73.6,30.15,SW,215,3.0,9.0,86,0.00,,CLR,0.01,VWS V14.01,2013-07-02 23:54:00,
2013-07-02 19:59:00,78.0,73.5,30.15,SSW,206,8.0,9.0,86,0.00,,CLR,0.01,VWS V14.01,2013-07-02 23:59:00,
2013-07-02 20:01:00,77.9,73.4,30.15,SSW,212,2.0,3.0,86,0.00,,CLR,0.01,VWS V14.01,2013-07-03 00:01:00,
2013-07-02 20:06:00,77.8,73.3,30.15,South,180,3.0,7.0,86,0.00,,CLR,0.01,VWS V14.01,2013-07-03 00:06:00,
2013-07-02 20:07:00,77.7,73.2,30.16,SW,215,5.0,7.0,86,0.00,,CLR,0.01,VWS V14.01,2013-07-03 00:07:00,
2013-07-02 20:12:00,77.6,73.4,30.16,SW,228,1.0,7.0,87,0.00,,CLR,0.01,VWS V14.01,2013-07-03 00:12:00,
2013-07-02 20:17:00,77.5,73.3,30.16,SSW,200,4.0,7.0,87,0.00,,CLR,0.01,VWS V14.01,2013-07-03 00:17:00,
2013-07-02 20:22:00,77.4,73.2,30.16,SSW,192,0.0,7.0,87,0.00,,CLR,0.01,VWS V14.01,2013-07-03 00:22:00,
2013-07-02 20:24:00,77.3,73.1,30.16,South,184,1.0,7.0,87,0.00,,CLR,0.01,VWS V14.01,2013-07-03 00:24:00,
2013-07-02 20:28:00,77.2,73.4,30.16,SSW,193,8.0,9.0,88,0.00,,CLR,0.01,VWS V14.01,2013-07-03 00:28:00,
2013-07-02 20:33:00,77.0,72.8,30.16,SSE,165,2.0,8.0,87,0.00,,CLR,0.01,VWS V14.01,2013-07-03 00:33:00,
2013-07-02 20:38:00,76.9,73.1,30.16,SW,222,3.0,8.0,88,0.00,,CLR,0.01,VWS V14.01,2013-07-03 00:38:00,
2013-07-02 20:43:00,76.8,72.6,30.16,South,190,3.0,8.0,87,0.00,,CLR,0.01,VWS V14.01,2013-07-03 00:43:00,
2013-07-02 20:48:00,76.7,72.5,30.17,South,182,2.0,8.0,87,0.00,,CLR,0.01,VWS V14.01,2013-07-03 00:48:00,
2013-07-02 20:53:00,76.6,72.8,30.17,SSW,202,2.0,8.0,88,0.00,,CLR,0.01,VWS V14.01,2013-07-03 00:53:00,
2013-07-02 20:58:00,76.5,72.7,30.17,SSW,202,3.0,8.0,88,0.00,,CLR,0.01,VWS V14.01,2013-07-03 00:58:00,
2013-07-02 21:00:00,76.4,72.6,30.17,SSW,202,0.0,8.0,88,0.00,,CLR,0.01,VWS V14.01,2013-07-03 01:00:00,
2013-07-02 21:03:00,76.4,72.6,30.17,SSW,202,0.0,0.0,88,0.00,,SCT090,0.01,VWS V14.01,2013-07-03 01:03:00,
2013-07-02 21:08:00,76.3,72.5,30.17,SSW,202,0.0,1.0,88,0.00,,SCT090,0.01,VWS V14.01,2013-07-03 01:08:00,
2013-07-02 21:09:00,76.3,72.5,30.17,SSW,202,1.0,5.0,88,0.00,,SCT090,0.01,VWS V14.01,2013-07-03 01:09:00,
2013-07-02 21:14:00,76.2,72.4,30.17,South,191,3.0,7.0,88,0.00,,SCT090,0.01,VWS V14.01,2013-07-03 01:14:00,
2013-07-02 21:19:00,76.2,72.4,30.17,SSW,195,0.0,7.0,88,0.00,,SCT090,0.01,VWS V14.01,2013-07-03 01:19:00,
2013-07-02 21:24:00,76.1,72.3,30.16,SSW,195,0.0,7.0,88,0.00,,SCT090,0.01,VWS V14.01,2013-07-03 01:24:00,
2013-07-02 21:26:00,76.1,72.3,30.16,SSW,195,1.0,7.0,88,0.00,,SCT090,0.01,VWS V14.01,2013-07-03 01:26:00,
2013-07-02 21:31:00,76.0,71.9,30.17,SW,225,5.0,6.0,87,0.00,,SCT090,0.01,VWS V14.01,2013-07-03 01:31:00,
2013-07-02 21:36:00,76.0,71.9,30.17,SW,223,1.0,6.0,87,0.00,,SCT090,0.00,VWS V14.01,2013-07-03 01:36:00,
2013-07-02 21:41:00,75.9,71.8,30.17,SSW,202,6.0,6.0,87,0.00,,SCT090,0.01,VWS V14.01,2013-07-03 01:41:00,
2013-07-02 21:46:00,75.8,72.0,30.18,SSW,199,2.0,7.0,88,0.00,,SCT090,0.01,VWS V14.01,2013-07-03 01:46:00,
2013-07-02 21:49:00,75.8,71.7,30.18,SSW,199,0.0,7.0,87,0.00,,SCT090,0.01,VWS V14.01,2013-07-03 01:49:00,
2013-07-02 21:50:00,75.8,72.0,30.18,SSW,199,0.0,7.0,88,0.00,,SCT090,0.01,VWS V14.01,2013-07-03 01:50:00,
2013-07-02 21:55:00,75.7,71.6,30.18,SSW,199,1.0,7.0,87,0.00,,SCT090,0.01,VWS V14.01,2013-07-03 01:55:00,
2013-07-02 22:00:00,75.6,71.5,30.18,SSW,205,1.0,4.0,87,0.00,,SCT090,0.01,VWS V14.01,2013-07-03 02:00:00,
2013-07-02 22:06:00,75.6,71.5,30.18,WSW,239,0.0,5.0,87,0.00,,SCT042,0.01,VWS V14.01,2013-07-03 02:06:00,
2013-07-02 22:11:00,75.6,71.5,30.18,SW,219,1.0,5.0,87,0.00,,SCT042,0.01,VWS V14.01,2013-07-03 02:11:00,
2013-07-02 22:16:00,75.5,71.4,30.18,WSW,248,0.0,5.0,87,0.00,,SCT042,0.01,VWS V14.01,2013-07-03 02:16:00,
2013-07-02 22:21:00,75.5,71.4,30.18,SSW,213,0.0,5.0,87,0.00,,SCT042,0.01,VWS V14.01,2013-07-03 02:21:00,
2013-07-02 22:26:00,75.4,71.6,30.17,SSW,212,3.0,5.0,88,0.00,,SCT042,0.01,VWS V14.01,2013-07-03 02:26:00,
2013-07-02 22:31:00,75.2,71.7,30.18,South,173,3.0,4.0,89,0.00,,SCT042,0.01,VWS V14.01,2013-07-03 02:31:00,
2013-07-02 22:33:00,75.2,71.7,30.17,South,186,4.0,5.0,89,0.00,,SCT042,0.01,VWS V14.01,2013-07-03 02:33:00,
2013-07-02 22:38:00,75.1,71.6,30.17,SSW,202,3.0,5.0,89,0.00,,SCT042,0.01,VWS V14.01,2013-07-03 02:38:00,
2013-07-02 22:43:00,75.2,71.4,30.18,South,190,5.0,7.0,88,0.00,,SCT042,0.01,VWS V14.01,2013-07-03 02:43:00,
2013-07-02 22:47:00,75.2,71.4,30.17,South,190,4.0,7.0,88,0.00,,SCT042,0.01,VWS V14.01,2013-07-03 02:47:00,
2013-07-02 22:52:00,75.1,71.6,30.17,South,188,3.0,7.0,89,0.00,,SCT042,0.01,VWS V14.01,2013-07-03 02:52:00,
2013-07-02 22:57:00,75.1,71.3,30.18,South,188,2.0,7.0,88,0.00,,SCT042,0.01,VWS V14.01,2013-07-03 02:57:00,
2013-07-02 23:02:00,75.1,71.3,30.18,SW,231,2.0,5.0,88,0.00,,SCT035,0.01,VWS V14.01,2013-07-03 03:02:00,
2013-07-02 23:07:00,75.0,71.5,30.18,SSW,194,1.0,5.0,89,0.00,,SCT035,0.01,VWS V14.01,2013-07-03 03:07:00,
2013-07-02 23:12:00,75.0,71.2,30.17,South,185,0.0,5.0,88,0.00,,SCT035,0.01,VWS V14.01,2013-07-03 03:12:00,
2013-07-02 23:17:00,74.9,71.1,30.18,South,185,2.0,5.0,88,0.00,,SCT035,0.01,VWS V14.01,2013-07-03 03:17:00,
2013-07-02 23:20:00,74.9,71.1,30.18,West,281,0.0,5.0,88,0.00,,SCT035,0.01,VWS V14.01,2013-07-03 03:20:00,
2013-07-02 23:25:00,74.8,71.0,30.18,West,264,0.0,5.0,88,0.00,,SCT035,0.01,VWS V14.01,2013-07-03 03:25:00,
2013-07-02 23:30:00,74.7,70.9,30.18,West,259,0.0,5.0,88,0.00,,SCT035,0.01,VWS V14.01,2013-07-03 03:30:00,
2013-07-02 23:35:00,74.7,71.2,30.18,South,176,1.0,6.0,89,0.00,,SCT035,0.01,VWS V14.01,2013-07-03 03:35:00,
2013-07-02 23:39:00,74.7,70.9,30.18,South,176,0.0,6.0,88,0.00,,SCT035,0.01,VWS V14.01,2013-07-03 03:39:00,
2013-07-02 23:44:00,74.7,70.9,30.18,SSE,156,2.0,7.0,88,0.00,,SCT035,0.01,VWS V14.01,2013-07-03 03:44:00,
2013-07-02 23:49:00,74.7,70.9,30.18,South,170,0.0,7.0,88,0.00,,SCT035,0.01,VWS V14.01,2013-07-03 03:49:00,
2013-07-02 23:54:00,74.7,70.9,30.18,SSW,208,1.0,7.0,88,0.00,,SCT035,0.01,VWS V14.01,2013-07-03 03:54:00,
2013-07-02 23:59:00,74.7,70.9,30.18,SSW,208,2.0,7.0,88,0.00,,SCT035,0.01,VWS V14.01,2013-07-03 03:59:00,